When you browse on this site, cookies collect data to enhance your experience and personalize the content and advertising you see.
Visit our Privacy Policy to learn more. By continuing to use the site, you agree to this use of cookies and data.
  • In Latvia
  • List of Countries
  • For 7 days
  • Water Temperature
  • Weather Map
  • Weather Widgets
  • user-avatar
    Login

    Hourly Weather Sydney

    Today, 7 December, Saturday

    Time Temperature Precipitation Wind Pressure Humidity
    00:00 +19°C° 0 mm 4 mps 757 mmHg 81%
    01:00 +19°C° 0 mm 3 mps 758 mmHg 82%
    02:00 +19°C° 0 mm 3 mps 758 mmHg 80%
    03:00 +20°C° 0 mm 2 mps 758 mmHg 78%
    04:00 +19°C° 0 mm 2 mps 757 mmHg 77%
    05:00 +20°C° 0 mm 2 mps 758 mmHg 72%
    06:00 +22°C° 0 mm 1 mps 759 mmHg 67%
    07:00 +22°C° 0 mm 1 mps 759 mmHg 62%
    08:00 +25°C° 0 mm 2 mps 759 mmHg 51%
    09:00 +27°C° 0 mm 2 mps 759 mmHg 39%
    10:00 +30°C° 0 mm 2 mps 758 mmHg 28%
    11:00 +31°C° 0 mm 3 mps 758 mmHg 28%
    12:00 +33°C° 0 mm 4 mps 757 mmHg 28%
    13:00 +33°C° 0 mm 5 mps 757 mmHg 28%
    14:00 +32°C° 0 mm 5 mps 757 mmHg 35%
    15:00 +29°C° 0 mm 5 mps 757 mmHg 41%
    16:00 +27°C° 0 mm 6 mps 756 mmHg 48%
    17:00 +25°C° 0 mm 5 mps 757 mmHg 56%
    18:00 +23°C° 0 mm 4 mps 759 mmHg 63%
    19:00 +21°C° 0 mm 3 mps 760 mmHg 70%
    20:00 +21°C° 0 mm 3 mps 761 mmHg 75%
    21:00 +20°C° 0 mm 4 mps 761 mmHg 80%
    22:00 +20°C° 0 mm 4 mps 762 mmHg 85%
    23:00 +19°C° 0.1 mm 4 mps 762 mmHg 85%

    Tomorrow, 8 December, Sunday

    Time Temperature Precipitation Wind Pressure Humidity
    00:00 +19°C° 0.1 mm 4 mps 762 mmHg 85%
    01:00 +19°C° 0.1 mm 4 mps 762 mmHg 85%
    02:00 +19°C° 0.1 mm 4 mps 762 mmHg 85%
    03:00 +19°C° 0.1 mm 4 mps 762 mmHg 85%
    04:00 +19°C° 0.1 mm 4 mps 762 mmHg 85%
    05:00 +19°C° 0 mm 4 mps 763 mmHg 82%
    06:00 +20°C° 0 mm 4 mps 763 mmHg 79%
    07:00 +21°C° 0 mm 4 mps 763 mmHg 76%
    08:00 +22°C° 0.1 mm 4 mps 763 mmHg 70%
    09:00 +23°C° 0.1 mm 5 mps 763 mmHg 64%
    10:00 +25°C° 0.1 mm 5 mps 763 mmHg 58%
    11:00 +26°C° 0 mm 5 mps 763 mmHg 54%
    12:00 +27°C° 0 mm 6 mps 763 mmHg 50%
    13:00 +28°C° 0 mm 6 mps 763 mmHg 46%
    14:00 +28°C° 0 mm 6 mps 762 mmHg 49%
    15:00 +27°C° 0 mm 7 mps 762 mmHg 51%
    16:00 +26°C° 0 mm 7 mps 762 mmHg 53%
    17:00 +24°C° 0 mm 7 mps 763 mmHg 59%
    18:00 +23°C° 0 mm 6 mps 764 mmHg 64%
    19:00 +21°C° 0 mm 6 mps 764 mmHg 70%
    20:00 +21°C° 0 mm 5 mps 765 mmHg 74%
    21:00 +20°C° 0 mm 4 mps 765 mmHg 78%
    22:00 +19°C° 0 mm 4 mps 766 mmHg 82%
    23:00 +19°C° 0 mm 3 mps 766 mmHg 82%

    Day after tomorrow, 9 December, Monday

    Time Temperature Precipitation Wind Pressure Humidity
    00:00 +19°C° 0 mm 3 mps 765 mmHg 83%
    01:00 +19°C° 0 mm 3 mps 765 mmHg 84%
    02:00 +20°C° 0 mm 3 mps 765 mmHg 83%
    03:00 +20°C° 0 mm 3 mps 765 mmHg 82%
    04:00 +20°C° 0 mm 3 mps 765 mmHg 82%
    05:00 +21°C° 0 mm 3 mps 765 mmHg 77%
    06:00 +22°C° 0 mm 4 mps 765 mmHg 73%
    07:00 +23°C° 0 mm 4 mps 765 mmHg 69%
    08:00 +26°C° 0 mm 5 mps 765 mmHg 62%
    09:00 +27°C° 0 mm 5 mps 765 mmHg 55%
    10:00 +29°C° 0 mm 6 mps 764 mmHg 48%
    11:00 +30°C° 0 mm 7 mps 763 mmHg 46%
    12:00 +32°C° 0 mm 7 mps 763 mmHg 43%
    13:00 +33°C° 0 mm 8 mps 762 mmHg 41%
    14:00 +32°C° 0 mm 8 mps 761 mmHg 45%
    15:00 +31°C° 0 mm 8 mps 761 mmHg 49%
    16:00 +29°C° 0 mm 9 mps 760 mmHg 53%
    17:00 +27°C° 0 mm 8 mps 760 mmHg 60%
    18:00 +26°C° 0 mm 8 mps 760 mmHg 66%
    19:00 +23°C° 0 mm 7 mps 760 mmHg 72%
    20:00 +23°C° 0 mm 7 mps 760 mmHg 75%
    21:00 +22°C° 0 mm 6 mps 761 mmHg 78%
    22:00 +21°C° 0 mm 5 mps 761 mmHg 81%
    23:00 +21°C° 0 mm 5 mps 760 mmHg 82%

    10 December, Tuesday

    Time Temperature Precipitation Wind Pressure Humidity
    00:00 +21°C° 0 mm 4 mps 760 mmHg 84%
    01:00 +20°C° 0 mm 3 mps 759 mmHg 85%
    02:00 +20°C° 0 mm 3 mps 759 mmHg 86%
    03:00 +20°C° 0 mm 2 mps 759 mmHg 87%
    04:00 +19°C° 0 mm 2 mps 759 mmHg 88%
    05:00 +21°C° 0 mm 2 mps 759 mmHg 78%
    06:00 +24°C° 0 mm 3 mps 759 mmHg 68%
    07:00 +26°C° 0 mm 3 mps 759 mmHg 58%
    08:00 +31°C° 0 mm 3 mps 758 mmHg 45%
    09:00 +36°C° 0 mm 3 mps 758 mmHg 32%
    10:00 +40°C° 0 mm 3 mps 758 mmHg 19%
    11:00 +43°C° 0 mm 4 mps 757 mmHg 16%
    12:00 +46°C° 0 mm 5 mps 756 mmHg 13%
    13:00 +48°C° 0 mm 5 mps 756 mmHg 9%
    14:00 +46°C° 0 mm 6 mps 755 mmHg 13%
    15:00 +44°C° 0 mm 6 mps 755 mmHg 17%
    16:00 +41°C° 0 mm 7 mps 755 mmHg 22%
    17:00 +35°C° 0 mm 8 mps 755 mmHg 39%
    18:00 +29°C° 0 mm 9 mps 756 mmHg 56%
    19:00 +24°C° 0 mm 10 mps 756 mmHg 73%
    20:00 +23°C° 0.3 mm 9 mps 757 mmHg 75%
    21:00 +22°C° 0.3 mm 8 mps 758 mmHg 77%
    22:00 +21°C° 0.3 mm 7 mps 759 mmHg 78%
    23:00 +20°C° 0 mm 7 mps 759 mmHg 78%

    11 December, Wednesday

    Time Temperature Precipitation Wind Pressure Humidity
    00:00 +20°C° 0 mm 7 mps 759 mmHg 78%
    01:00 +18°C° 0 mm 7 mps 758 mmHg 78%
    02:00 +19°C° 0 mm 6 mps 758 mmHg 78%
    03:00 +19°C° 0 mm 5 mps 758 mmHg 78%
    04:00 +17°C° 0 mm 5 mps 758 mmHg 78%
    05:00 +19°C° 0 mm 5 mps 759 mmHg 76%
    06:00 +20°C° 0 mm 5 mps 759 mmHg 73%
    07:00 +20°C° 0 mm 5 mps 759 mmHg 71%
    08:00 +22°C° 0 mm 5 mps 759 mmHg 64%
    09:00 +25°C° 0 mm 5 mps 759 mmHg 57%
    10:00 +27°C° 0 mm 5 mps 758 mmHg 50%
    11:00 +27°C° 0 mm 5 mps 758 mmHg 51%
    12:00 +27°C° 0 mm 5 mps 757 mmHg 52%
    13:00 +27°C° 0 mm 6 mps 757 mmHg 53%
    14:00 +26°C° 0 mm 6 mps 756 mmHg 55%
    15:00 +24°C° 0 mm 6 mps 756 mmHg 58%
    16:00 +24°C° 0 mm 6 mps 755 mmHg 60%
    17:00 +23°C° 0 mm 5 mps 756 mmHg 65%
    18:00 +21°C° 0 mm 5 mps 757 mmHg 69%
    19:00 +20°C° 0 mm 4 mps 758 mmHg 73%
    20:00 +20°C° 0 mm 4 mps 758 mmHg 76%
    21:00 +19°C° 0 mm 4 mps 758 mmHg 79%
    22:00 +19°C° 0 mm 4 mps 759 mmHg 82%
    23:00 +19°C° 0 mm 4 mps 758 mmHg 81%

    12 December, Thursday

    Time Temperature Precipitation Wind Pressure Humidity
    00:00 +19°C° 0 mm 4 mps 758 mmHg 81%
    01:00 +19°C° 0 mm 4 mps 758 mmHg 80%
    02:00 +19°C° 0 mm 4 mps 758 mmHg 80%
    03:00 +19°C° 0 mm 4 mps 757 mmHg 80%
    04:00 +19°C° 0 mm 4 mps 757 mmHg 79%
    05:00 +19°C° 0 mm 4 mps 757 mmHg 78%
    06:00 +19°C° 0 mm 4 mps 758 mmHg 76%
    07:00 +20°C° 0 mm 3 mps 758 mmHg 74%
    08:00 +21°C° 0 mm 3 mps 758 mmHg 68%
    09:00 +22°C° 0 mm 3 mps 757 mmHg 62%
    10:00 +25°C° 0 mm 3 mps 757 mmHg 57%
    11:00 +25°C° 0 mm 3 mps 756 mmHg 54%
    12:00 +26°C° 0 mm 4 mps 755 mmHg 51%
    13:00 +27°C° 0 mm 4 mps 755 mmHg 48%
    14:00 +26°C° 0 mm 4 mps 754 mmHg 52%
    15:00 +26°C° 0 mm 4 mps 754 mmHg 55%
    16:00 +25°C° 0 mm 5 mps 753 mmHg 58%
    17:00 +23°C° 0 mm 5 mps 754 mmHg 63%
    18:00 +21°C° 0 mm 5 mps 755 mmHg 68%
    19:00 +20°C° 0 mm 4 mps 755 mmHg 73%
    20:00 +20°C° 0 mm 5 mps 756 mmHg 73%
    21:00 +19°C° 0 mm 5 mps 756 mmHg 74%
    22:00 +19°C° 0 mm 6 mps 757 mmHg 74%
    23:00 +19°C° 0 mm 5 mps 756 mmHg 73%
    Show more